Disclaimer

Please do not use the information listed here in-flight or in-navigation, as they are not provided to us by the airports but are provided by volunteers, so they might be outdated.

Search


Regions


Airport information page

No radio frequency information is available.

Airport informations:
Latitude: 30° 34' 42.70" N
Longitude: 103° 56' 49.51" E
Elevation: 1625 feet - 495 meters
Operating hours: Remarks
Operating agency: Civil government, landing fees and diplomatic clearance may be required
Timezone: UTC+8
Fuel: N/A

Runway information:
02/20 - 11811 x 197 feet< - >3600 x 60 meters

Recent METARs:
ZUUU 171300Z 10003MPS 060V120 5000 BR SCT050 08/03 Q1022 NOSIG
ZUUU 171300Z 10003MPS 060V120 5000 BR SCT050 08/03 Q1022 NOSIG
ZUUU 171400Z 10002MPS 030V150 6000 SCT050 08/03 Q1022 NOSIG

Airport on the map: